www.pogodaiklimat.ru

Погода и климат >> Архив погоды >> Австралия >> Tibooburra Airport


ПОГОДА в Tibooburra Airport

  • Прогноз погоды в Tibooburra Airport
  • Монитор погоды в Tibooburra Airport
  • Климат города

АРХИВ ПОГОДЫ в Tibooburra Airport

Время (UTC), дата Ветер
(напр.,м/с)
 
Видим.   Явления Облачность Т
(С)
Тd
(С)
f
(%)
Тe
(С)
Тes
(С)
Комфортность P
(гПа)
Po
(гПа)
Тmin
(С)
Tmax
(С)
R
(мм)
S
(см)
22 18.03 Ю 3 н/о н/о +25.6 +14.4 50 +28 +28 жарко 1013.4 993.2
23 18.03 ЮВ 6 н/о н/о +27.2 +13.2 42 +29 +29 жарко 1013.5 993.3
00 19.03 ЮВ 4 н/о н/о +28.2 +13.3 40 +30 +30 жарко 1013.1 992.9
01 19.03 В 3 н/о н/о +28.6 +12.1 36 +30 +30 жарко 1012.4 992.2 +21.8
02 19.03 В 5 н/о н/о +29.7 +12.2 34 +31 +31 жарко 1011.5 991.4
03 19.03 Ю 5 н/о н/о +29.6 +11.6 33 +30 +30 жарко 1010.6 990.5
04 19.03 ЮВ 6 н/о н/о +29.6 +12.1 34 +30 +30 жарко 1010.2 990.1
05 19.03 В 9 н/о н/о +26.5 +16.4 54 +30 +30 душно 1010.3 990.2
06 19.03 В 7 н/о н/о +25.1 +17.1 61 +29 +29 душно 1010.2 990.1
07 19.03 В 5 н/о н/о +25.9 +16.2 55 +29 +29 душно 1010.0 989.9
08 19.03 В 5 н/о н/о +25.9 +15.9 54 +29 +29 душно 1009.9 989.8
09 19.03 В 5 н/о н/о +25.9 +15.9 54 +29 +29 душно 1010.1 990.0
10 19.03 В 6 н/о н/о +24.7 +16.2 59 +28 +28 душно 1010.7 990.6
11 19.03 В 5 н/о н/о +24.0 +16.3 62 +27 +27 жарко 1011.2 991.1
12 19.03 В 3 н/о н/о +23.3 +17.3 69 +29 +29 душно 1011.4 991.3
13 19.03 В 6 н/о н/о +22.9 +18.0 74 +28 +28 душно 1011.1 991.0 +31.5
14 19.03 В 5 н/о н/о +22.8 +18.6 77 +29 +29 очень
душно
1010.7 990.6
15 19.03 СВ 2 н/о н/о +22.2 +18.4 79 +27 +27 душно 1010.4 990.3
16 19.03 В 2 н/о н/о +21.6 +18.0 80 +26 +26 душно 1010.0 989.9
17 19.03 штиль 0 н/о н/о +21.1 +17.3 79 +25 +25 комфорт 1009.7 989.6
18 19.03 ЮВ 2 н/о н/о +21.0 +18.0 83 +26 +26 душно 1009.5 989.4
19 19.03 штиль 0 н/о н/о +20.5 +17.3 82 +24 +24 комфорт 1009.3 989.2
20 19.03 ЮВ 3 н/о н/о +20.6 +18.4 87 +25 +25 комфорт 1009.8 989.7
21 19.03 ЮВ 3 н/о н/о +20.9 +18.7 87 +26 +26 душно 1010.2 990.1
23 19.03 В 4 н/о н/о +24.6 +18.1 67 +29 +29 душно 1010.5 990.4
22 19.03 ЮВ 5 н/о н/о +22.7 +18.0 75 +28 +28 душно 1010.4 990.3
00 20.03 В 3 н/о н/о +26.6 +17.1 56 +31 +31 душно 1010.4 990.3
01 20.03 В 2 н/о н/о +28.3 +15.9 47 +31 +31 душно 1010.2 990.1 +20.5
02 20.03 Ю 2 н/о н/о +29.0 +14.8 42 +31 +31 жарко 1009.2 989.1
03 20.03 Ю 2 н/о н/о +30.8 +14.4 37 +33 +33 душно 1008.7 988.6
05 20.03 СВ 2 н/о н/о +31.4 +14.1 35 +33 +33 жарко 1007.3 987.2
04 20.03 ЮВ 3 н/о н/о +31.1 +13.4 34 +32 +32 жарко 1008.0 987.9
06 20.03 Ю 3 н/о н/о +31.6 +13.4 33 +33 +33 жарко 1006.7 986.7
07 20.03 Ю 2 н/о н/о +32.4 +12.6 30 +33 +33 жарко 1006.6 986.6
08 20.03 Ю 2 н/о н/о +31.8 +13.1 32 +33 +33 жарко 1007.0 987.0
09 20.03 Ю 3 н/о н/о +31.2 +13.0 33 +32 +32 жарко 1007.7 987.6
11 20.03 В 6 н/о н/о +28.7 +16.6 48 +32 +32 душно 1009.0 988.9
10 20.03 ЮВ 3 н/о н/о +30.1 +13.0 35 +31 +31 жарко 1008.2 988.1
12 20.03 В 5 н/о н/о +28.0 +16.9 51 +32 +32 душно 1009.2 989.1
13 20.03 В 5 н/о н/о +27.2 +17.4 55 +31 +31 душно 1009.0 988.9 +33.3
14 20.03 В 6 н/о н/о +26.6 +18.2 60 +31 +31 душно 1008.9 988.8
15 20.03 В 4 н/о н/о +25.9 +19.1 66 +31 +31 очень
душно
1008.7 988.6
17 20.03 В 3 н/о н/о +24.1 +19.6 76 +29 +29 душно 1008.3 988.2
16 20.03 В 3 н/о н/о +24.9 +19.3 71 +30 +30 душно 1008.6 988.5
18 20.03 В 3 н/о н/о +23.4 +19.3 78 +30 +30 очень
душно
1008.2 988.1
19 20.03 В 2 н/о н/о +23.0 +19.8 82 +30 +30 очень
душно
1008.5 988.4
20 20.03 штиль 0 н/о н/о +22.5 +20.4 88 +29 +29 очень
душно
1008.8 988.7
21 20.03 штиль 0 н/о н/о +22.6 +20.7 89 +29 +29 очень
душно
1009.3 989.2
23 20.03 СЗ 3 н/о н/о +29.1 +16.6 47 +33 +33 очень
душно
1010.4 990.3
22 20.03 С 3 н/о н/о +25.3 +20.5 75 +31 +31 очень
душно
1009.8 989.7
00 21.03 СЗ 3 н/о н/о +32.0 +13.2 32 +33 +33 жарко 1010.7 990.6
01 21.03 З 3 н/о н/о +33.8 +12.7 28 +34 +34 очень
жарко
1010.6 990.5 +22.3
02 21.03 З 3 н/о н/о +34.4 +11.5 25 +34 +34 очень
жарко
1010.1 990.0
03 21.03 ЮЗ 3 н/о н/о +35.5 +10.5 22 +35 +35 очень
жарко
1009.5 989.4
04 21.03 ЮЗ 5 н/о н/о +36.4 +8.3 18 +35 +35 очень
жарко
1008.9 988.8
05 21.03 СЗ 3 н/о н/о +36.6 +8.4 18 +35 +35 очень
жарко
1008.1 988.0
06 21.03 ЮЗ 6 н/о н/о +37.1 +7.1 16 +35 +35 очень
жарко
1007.5 987.4
07 21.03 Ю 5 н/о н/о +37.2 +5.3 14 +34 +34 очень
жарко
1007.4 987.3
08 21.03 ЮЗ 5 н/о н/о +36.5 +5.7 15 +34 +34 очень
жарко
1007.6 987.5
09 21.03 Ю 4 н/о н/о +35.0 +7.1 18 +33 +33 жарко 1007.9 987.8
10 21.03 Ю 1 н/о н/о +33.1 +7.1 20 +31 +31 жарко 1008.7 988.6
11 21.03 В 2 н/о н/о +32.1 +7.0 21 +30 +30 жарко 1009.5 989.4
12 21.03 СВ 3 н/о н/о +31.6 +8.6 24 +31 +31 жарко 1009.8 989.7
13 21.03 С 2 н/о н/о +30.9 +8.6 25 +30 +30 жарко 1010.1 990.0 +38.4
14 21.03 С 4 н/о н/о +30.4 +9.3 27 +30 +30 жарко 1009.6 989.5
15 21.03 С 4 н/о н/о +29.2 +9.3 29 +29 +29 жарко 1009.4 989.3
16 21.03 СЗ 4 н/о н/о +29.5 +9.6 29 +29 +29 жарко 1009.6 989.5
17 21.03 З 3 н/о н/о +27.8 +9.1 31 +28 +28 жарко 1009.5 989.4
18 21.03 ЮЗ 5 н/о н/о +27.9 +7.2 27 +27 +27 жарко 1009.6 989.5
19 21.03 ЮЗ 4 н/о н/о +26.2 +7.7 31 +26 +26 жарко 1009.6 989.5
20 21.03 ЮЗ 3 н/о н/о +24.8 +7.9 34 +25 +25 комфорт 1010.4 990.3
21 21.03 ЮЗ 4 н/о н/о +24.5 +8.0 35 +25 +25 комфорт 1011.3 991.2
22 21.03 ЮЗ 4 н/о н/о +27.1 +7.5 29 +27 +27 жарко 1011.5 991.4
23 21.03 ЮЗ 4 н/о н/о +30.0 +7.2 24 +29 +29 жарко 1011.9 991.8
00 22.03 Ю 3 н/о н/о +33.0 +7.8 21 +31 +31 жарко 1011.8 991.7
02 22.03 З 3 н/о н/о +35.6 +5.0 15 +33 +33 жарко 1010.8 990.7
01 22.03 В 1 н/о н/о +35.0 +6.3 17 +33 +33 жарко 1011.5 991.4 +24.4
03 22.03 З 6 н/о н/о +36.7 +3.8 13 +34 +34 очень
жарко
1010.0 989.9
04 22.03 З 5 н/о н/о +37.1 +0.4 10 +33 +33 жарко 1009.4 989.3
05 22.03 З 5 н/о н/о +37.6 +0.8 10 +34 +34 очень
жарко
1008.8 988.7
06 22.03 З 6 н/о н/о +37.8 -0.5 9 +34 +34 очень
жарко
1008.3 988.2
08 22.03 З 7 н/о н/о +35.5 +0.6 11 +32 +32 жарко 1008.5 988.4
07 22.03 З 8 н/о н/о +37.0 +0.4 10 +33 +33 жарко 1008.2 988.1
09 22.03 ЮЗ 6 н/о н/о +32.9 +1.9 14 +30 +30 жарко 1009.0 988.9
10 22.03 ЮЗ 5 н/о н/о +31.0 +1.4 15 +28 +28 жарко 1009.8 989.7
11 22.03 З 5 н/о н/о +29.5 +1.9 17 +27 +27 жарко 1010.6 990.5
12 22.03 ЮЗ 5 н/о н/о +28.1 +3.7 21 +27 +27 жарко 1011.0 990.9
14 22.03 З 4 н/о н/о +26.2 +10.0 36 +27 +27 жарко 1011.3 991.2
13 22.03 ЮЗ 6 н/о н/о +27.6 +9.4 32 +28 +28 жарко 1011.4 991.3 +38.6
15 22.03 ЮЗ 4 н/о н/о +24.7 +10.2 40 +26 +26 жарко 1011.1 991.0
16 22.03 ЮЗ 5 н/о н/о +24.4 +11.4 44 +26 +26 жарко 1010.4 990.3
17 22.03 Ю 6 н/о н/о +25.2 +14.3 51 +28 +28 жарко 1010.2 990.1
18 22.03 Ю 4 н/о н/о +24.6 +15.0 55 +27 +27 жарко 1010.2 990.1
20 22.03 ЮЗ 3 н/о н/о +22.0 +14.4 62 +25 +25 комфорт 1011.3 991.2
19 22.03 Ю 3 н/о н/о +23.8 +15.0 58 +27 +27 жарко 1010.4 990.3
21 22.03 ЮЗ 3 н/о н/о +21.8 +14.7 64 +25 +25 комфорт 1011.9 991.8
22 22.03 ЮЗ 4 н/о н/о +24.5 +15.4 57 +27 +27 жарко 1012.5 992.3
23 22.03 Ю 5 н/о н/о +26.8 +15.5 50 +30 +30 душно 1013.2 993.0
00 23.03 Ю 4 н/о н/о +29.0 +15.2 43 +32 +32 душно 1013.2 993.0
01 23.03 Ю 2 н/о н/о +31.2 +12.5 32 +32 +32 жарко 1013.0 992.8 +21.5
02 23.03 СВ 2 н/о н/о +33.6 +10.2 24 +33 +33 жарко 1012.1 992.0
03 23.03 ЮЗ 3 н/о н/о +34.5 +7.5 19 +33 +33 жарко 1011.2 991.1
04 23.03 ЮЗ 3 н/о н/о +36.2 +6.4 16 +34 +34 очень
жарко
1010.4 990.3
05 23.03 ЮЗ 3 н/о н/о +36.0 +3.3 13 +33 +33 жарко 1009.8 989.7
06 23.03 Ю 3 н/о н/о +36.0 +2.1 12 +33 +33 жарко 1009.5 989.4
07 23.03 З 3 н/о н/о +36.3 -0.2 10 +33 +33 жарко 1009.3 989.2
08 23.03 ЮЗ 2 н/о н/о +35.9 -0.5 10 +32 +32 жарко 1009.3 989.2
09 23.03 Ю 3 н/о н/о +33.1 +3.0 15 +30 +30 жарко 1009.7 989.6
10 23.03 Ю 3 н/о н/о +31.1 +4.0 18 +29 +29 жарко 1010.4 990.3
11 23.03 Ю 4 н/о н/о +29.9 +5.2 21 +28 +28 жарко 1011.0 990.9
12 23.03 Ю 4 н/о н/о +29.0 +5.8 23 +28 +28 жарко 1011.3 991.2
13 23.03 Ю 4 н/о н/о +27.7 +7.0 27 +27 +27 жарко 1011.1 991.0 +37.3
14 23.03 Ю 3 н/о н/о +26.6 +7.6 30 +26 +26 жарко 1010.9 990.8
15 23.03 ЮЗ 2 н/о н/о +25.8 +7.9 32 +26 +26 жарко 1010.7 990.6
16 23.03 Ю 3 н/о н/о +26.0 +9.4 35 +26 +26 жарко 1010.8 990.7
17 23.03 Ю 3 н/о н/о +24.8 +8.7 36 +25 +25 комфорт 1010.5 990.4
18 23.03 Ю 2 н/о н/о +24.1 +9.7 40 +25 +25 комфорт 1010.0 989.9
19 23.03 Ю 3 н/о н/о +24.2 +9.8 40 +25 +25 комфорт 1010.1 990.0
20 23.03 ЮЗ 3 н/о н/о +22.9 +10.0 44 +25 +25 комфорт 1010.9 990.8
21 23.03 ЮЗ 3 н/о н/о +22.9 +10.3 45 +25 +25 комфорт 1011.1 991.0
23 23.03 ЮВ 4 н/о н/о +29.6 +10.7 31 +30 +30 жарко 1012.0 991.9
22 23.03 Ю 4 н/о н/о +26.6 +11.1 38 +28 +28 жарко 1011.6 991.5
00 24.03 СВ 2 н/о н/о +32.3 +10.4 26 +32 +32 жарко 1012.0 991.9
01 24.03 С 5 н/о н/о +34.7 +11.8 25 +34 +34 очень
жарко
1011.7 991.6 +22.8
02 24.03 С 4 н/о н/о +36.7 +11.5 22 +36 +36 очень
жарко
1010.8 990.7
03 24.03 С 7 н/о н/о +38.6 +8.3 16 +37 +37 очень
жарко
1009.7 989.6
05 24.03 СЗ 3 н/о н/о +39.7 +6.1 13 +37 +37 очень
жарко
1008.0 987.9
04 24.03 СЗ 4 н/о н/о +39.3 +5.8 13 +37 +37 очень
жарко
1008.7 988.6
06 24.03 СЗ 2 н/о н/о +38.5 +4.1 12 +35 +35 очень
жарко
1007.8 987.7
07 24.03 СЗ 2 н/о н/о +39.1 +5.7 13 +36 +36 очень
жарко
1007.8 987.7
08 24.03 СЗ 2 н/о н/о +38.0 +5.9 14 +35 +35 очень
жарко
1008.1 988.0
09 24.03 штиль 0 н/о н/о +36.2 +6.4 16 +34 +34 очень
жарко
1008.5 988.4
11 24.03 Ю 2 н/о н/о +32.4 +6.6 20 +31 +31 жарко 1009.4 989.3
10 24.03 В 4 н/о н/о +34.2 +6.5 18 +32 +32 жарко 1008.9 988.8
12 24.03 ЮВ 2 н/о н/о +32.4 +7.3 21 +31 +31 жарко 1009.6 989.5
13 24.03 ЮЗ 4 н/о н/о +30.1 +6.7 23 +29 +29 жарко 1009.6 989.5 +40.3
14 24.03 Ю 4 н/о н/о +30.0 +6.0 22 +29 +29 жарко 1009.7 989.6
15 24.03 Ю 4 н/о н/о +29.6 +6.3 23 +28 +28 жарко 1009.4 989.3
17 24.03 Ю 4 н/о н/о +28.8 +9.5 30 +29 +29 жарко 1009.5 989.4
16 24.03 Ю 4 н/о н/о +29.4 +7.9 26 +29 +29 жарко 1009.3 989.2
18 24.03 ЮВ 3 н/о н/о +28.3 +10.9 34 +29 +29 жарко 1009.5 989.4
19 24.03 ЮВ 3 н/о н/о +27.7 +11.7 37 +29 +29 жарко 1009.8 989.7
20 24.03 В 4 н/о н/о +27.0 +13.0 42 +29 +29 жарко 1010.1 990.0
21 24.03 В 4 н/о н/о +26.5 +12.9 43 +28 +28 жарко 1010.3 990.2
23 24.03 С 4 н/о н/о +32.0 +10.7 27 +32 +32 жарко 1011.5 991.4
22 24.03 В 3 н/о н/о +27.9 +12.7 39 +29 +29 жарко 1010.8 990.7
00 25.03 С 5 н/о н/о +35.6 +10.6 22 +35 +35 очень
жарко
1011.7 991.6
01 25.03 С 7 н/о н/о +37.1 +9.6 19 +36 +36 очень
жарко
1011.2 991.1 +26.3
02 25.03 СЗ 6 н/о н/о +38.3 +9.0 17 +37 +37 очень
жарко
1010.5 990.4
03 25.03 З 6 н/о н/о +39.2 +7.8 15 +37 +37 очень
жарко
1009.5 989.4
04 25.03 ЮЗ 4 н/о н/о +40.1 +6.4 13 +37 +37 очень
жарко
1008.7 988.6
05 25.03 ЮЗ 3 н/о н/о +40.8 +5.8 12 +38 +38 очень
жарко
1007.9 987.8
06 25.03 ЮЗ 4 н/о н/о +40.3 +4.2 11 +37 +37 очень
жарко
1007.4 987.3
07 25.03 З 3 н/о н/о +40.0 +4.0 11 +37 +37 очень
жарко
1007.5 987.4
08 25.03 ЮЗ 3 н/о н/о +39.3 +4.7 12 +36 +36 очень
жарко
1007.8 987.7
09 25.03 ЮЗ 3 н/о н/о +36.6 +4.8 14 +34 +34 очень
жарко
1008.2 988.1
10 25.03 ЮЗ 2 н/о н/о +34.6 +5.1 16 +32 +32 жарко 1009.0 988.9
11 25.03 ЮЗ 3 н/о н/о +33.3 +5.0 17 +31 +31 жарко 1009.9 989.8
12 25.03 Ю 4 н/о н/о +32.4 +5.1 18 +30 +30 жарко 1010.4 990.3
13 25.03 Ю 6 н/о н/о +33.1 +6.4 19 +31 +31 жарко 1010.7 990.6 +41.2
14 25.03 ЮВ 7 н/о н/о +32.2 +7.1 21 +31 +31 жарко 1010.9 990.8
15 25.03 ЮВ 4 н/о н/о +30.8 +7.3 23 +30 +30 жарко 1010.7 990.6
16 25.03 В 4 н/о н/о +28.9 +6.3 24 +28 +28 жарко 1010.5 990.4
17 25.03 ЮВ 4 н/о н/о +27.8 +6.6 26 +27 +27 жарко 1010.2 990.1
18 25.03 ЮВ 3 н/о н/о +27.5 +6.8 27 +27 +27 жарко 1010.2 990.1
19 25.03 ЮВ 3 н/о н/о +27.3 +6.7 27 +27 +27 жарко 1010.7 990.6
20 25.03 Ю 2 н/о н/о +26.2 +6.8 29 +26 +26 жарко 1011.2 991.1
21 25.03 В 3 н/о н/о +26.2 +6.8 29 +26 +26 жарко 1011.6 991.5
22 25.03 В 3 н/о н/о +29.9 +6.5 23 +29 +29 жарко 1012.3 992.1

 

Местоположение метеостанции Tibooburra Airport (Новый Южный Уэльс, Австралия): широта -29.45 долгота 142.05 высота над уровнем моря 177 м.

В архиве по умолчанию представлена погода в Tibooburra Airport за последнюю неделю. Архивные данные за месяц целиком и за предыдущие месяцы, начиная с января 2011 года, Вы можете получить, выбрав интересующий диапазон дат из раскрывающегося списка и нажав кнопку "Ввод!".

Внимание! Время в таблицах - всемирное. Для получения местного времени необходимо прибавить поправку, которая в Tibooburra Airport равна 10 ч.

Смотрите также архив погоды в соседних городах и на ближайших метеорологических станциях:

Погода в White Cliffs Aws (Новый Южный Уэльс, Австралия) (184 км)
Погода в Fowlers Gap Aws (Новый Южный Уэльс, Австралия) (184 км)
Погода в Ballera Gas Field (Квинсленд, Австралия) (227 км)
Погода в Moomba Airport (Южная Австралия, Австралия) (235 км)
Погода в Thargomindah Airport (Квинсленд, Австралия) (237 км)
Погода в Wilcannia Aerodrome (Новый Южный Уэльс, Австралия) (263 км)
Погода в Broken Hill Airport (Новый Южный Уэльс, Австралия) (289 км)
Погода в Leigh Creek Airport (Южная Австралия, Австралия) (372 км)
Погода в Bourke Airport Aws (Новый Южный Уэльс, Австралия) (382 км)
Погода в Marree Aero (Южная Австралия, Австралия) (387 км)

Пояснения к столбцам:

Ветер - указаны скорость ветра в м/с - средняя за 10 мин, порывы в срок и между сроками (в фигурных скобках) и направление, откуда дует ветер: С - северный, СВ - северо-восточный, В - восточный, ЮВ - юго-восточный, Ю - южный, ЮЗ - юго-западный, З - западный, СЗ - северо-западный.
Видимость - горизонтальная дальность видимости в метрах или километрах. При видимости от 1 до 10 км при отсутствии осадков обычно наблюдается дымка, при ухудшении видимости до 1 км и менее - туман. В сухую погоду видимость может ухудшаться дымом, пылью или мглою.
Явления - указаны атмосферные явления, наблюдавшиеся в срок или в последний час перед сроком; фигурными скобками обозначены явления, наблюдавшиеся между сроками (за 1-3 часа до срока); квадратными скобками обозначены град или гололедные отложения с указанием их диаметра в мм.
Облачность - указаны через наклонную черту общая и нижняя облачность в баллах и высота нижней границы облаков в метрах; квадратными скобками обозначены формы облаков: Ci - перистые, Cs - перисто-слоистые, Cc - перисто-кучевые, Ac - высококучевые, As - высокослоистые, Sc - слоисто-кучевые, Ns - слоисто-дождевые, Cu - кучевые, Cb - кучево-дождевые. Подробнее классификацию облаков см. в Атласе облаков (PDF).
T - Температура воздуха - температура, измеренная на высоте 2 м над землей.
Td - Температура точки росы - температура, при понижении до которой содержащийся в воздухе водяной пар достигнет насыщения.
f - Относительная влажность воздуха - влажноcть воздуха, измеренная на высоте 2 м над землей.
Te - Эффективная температура - температура, которую ощущает одетый по сезону человек в тени. Характеристика душности погоды. При расчете учитывается влияние влажности воздуха и скорости ветра на теплоощущения человека.
Tes - Эффективная температура на солнце - температура, которую ощущает человек, с поправкой на солнечный нагрев. Характеристика знойности погоды. Зависит от высоты солнца над горизонтом, облачности и скорости ветра. Ночью, в пасмурную погоду, а также при ветре 12 м/с и более поправка равна нулю.
P - Атмосферное давление - приведенное к уровню моря атмосферное давление.
Po - Атмосферное давление - измеренное на уровне метеостанции атмосферное давление.
Tmin - Минимальная температура - минимум температуры воздуха на высоте 2 м над землей.
Tmax - Максимальная температура - максимум температуры воздуха на высоте 2 м над землей.
R - Количество осадков - Количество выпавших осадков, мм. При наведении курсора мыши на число - период времени, за который выпало указанное количество осадков.
S - Снежный покров - Высота снежного покрова, см. При наведении курсора мыши на число - состояние снежного покрова и степень покрытия местности в баллах.